Current Version              Previous Version:    01  02  03  04  05  06  07  08  09  10  11  12  13  14  15  16  17  18  19  20  21  22  23  24  25  26  27  28  29  30  
   31  32  33  34  35  36  37  38  39  40  41  42  43  44  45  46  47  48  49  50  51  52  53  54  55  56  57  58  59  60  

[Printable]
426
ASUS44 KFWD 221301
RWRTX
NORTH TEXAS HOURLY WEATHER ROUNDUP
NATIONAL WEATHER SERVICE FORT WORTH TX
700 AM CST SAT NOV 22 2014

NOTE: "FAIR" INDICATES FEW OR NO CLOUDS BELOW 12,000 FEET WITH NO
SIGNIFICANT WEATHER AND/OR OBSTRUCTIONS TO VISIBILITY.

TXZ118-119-221400-
DALLAS/FORT WORTH METROPLEX

CITY           SKY/WX    TMP DP  RH WIND       PRES   REMARKS
DFW AIRPORT    FOG       56  56 100 SE10      30.04R VSB 1
DALLAS LOVE    CLOUDY    59  57  93 SE17      30.05R FOG
FTW MEACHAM    CLOUDY    61  59  93 SE9       30.02S FOG
DAL-EXECUTIVE  CLOUDY    60  57  89 SE12      30.05R FOG
FTW-ALLIANCE   CLOUDY    59  59 100 SE12      30.02S FOG
FTW-SPINKS     CLOUDY    61  61 100 SE13      30.04S FOG
ARLINGTON      CLOUDY    60  57  89 SE13      30.04S FOG
MESQUITE       CLOUDY    59  55  88 SE7       30.07
LANCASTER      CLOUDY    58  55  87 SE12      30.07R
$$

TXZ091>094-102>105-117-120-121-131>134-221400-
NORTH CENTRAL TEXAS

CITY           SKY/WX    TMP DP  RH WIND       PRES   REMARKS
SHRMAN/DENISON CLOUDY    59  59  99 SE17G23   30.04F
BRIDGEPORT     RAIN      61  61 100 SE7       30.03R
DENTON         CLOUDY    59  58  96 SE14      30.04R FOG
MCKINNEY       CLOUDY    59  57  93 SE12      30.07R
ROCKWALL       CLOUDY    59  56  89 SE10      30.06R
TERRELL        CLOUDY    61  55  81 SE10      30.09R
WAXAHACHIE     CLOUDY    58  58 100 SE9       30.06R FOG
CLEBURNE       CLOUDY    63  63 100 SE15G21   30.04R
GRANBURY       CLOUDY    65  62  87 SE9       30.02S THUNDER
$$

TXZ083>090-098>101-113>116-127>130-139>142-154-155-221400-
WESTERN NORTH TEXAS

CITY           SKY/WX    TMP DP  RH WIND       PRES   REMARKS
WICHITA FALLS  LGT RAIN  57  54  89 N15       29.96F
WF-KICKAPOO    TSTM      57  57 100 NE5       29.99F
VERNON         CLOUDY    54  52  94 W9        29.97R THUNDER
ABILENE        MOCLDY    63  60  90 S9        29.98R
ABILENE-DYESS  CLOUDY    62  59  90 S9        29.96S
MINERAL WELLS  TSTM      70  62  76 SE6       29.99S VSB 1/2
STEPHENVILLE   CLOUDY    64  60  88 S10G18    30.03R
COMANCHE       DRIZZLE   63  63 100 SE13G18   29.99F
COLEMAN        CLOUDY    63  61  94 SE7       29.98R
$$

TXZ143>147-156>162-174-175-221400-
CENTRAL TEXAS

CITY           SKY/WX    TMP DP  RH WIND       PRES   REMARKS
WACO           CLOUDY    63  60  90 SE16      30.02F
WACO-TSTC      CLOUDY    64  61  88 S8G17     30.04
WACO-MCGREGOR  CLOUDY    63  57  82 SE10      30.04S
CORSICANA      CLOUDY    59  55  87 SE9       30.09R
MEXIA          CLOUDY    58  57  96 SE8       30.06S FOG
HEARNE         CLOUDY    62  60  93 SE6       30.07R
TEMPLE         CLOUDY    63  57  82 SE14      30.02R
KILLEEN        CLOUDY    63  62  96 SE16G25   30.02R
KILLEEN-SKYLRK CLOUDY    64  57  77 SE13      30.01S
FORT HOOD      CLOUDY    66  62  87 SE13G18   30.01S
GATESVILLE     CLOUDY    64  63  94 S13       30.04S
HAMILTON       CLOUDY    64  64 100 SE17G30   30.02R
LAMPASAS       CLOUDY    64  62  95 SE10G21   30.00S
$$

TXZ095>097-106>112-122>126-135>138-148>153-164>167-221400-
EAST TEXAS

CITY           SKY/WX    TMP DP  RH WIND       PRES   REMARKS
PARIS          CLOUDY    55  52  88 SE13      30.11S
SULPHUR SPRNGS CLOUDY    59  52  77 SE12      30.11S
MINEOLA        MOCLDY    59  54  82 SE9G17    30.10S
TYLER          CLOUDY    59  52  77 SE10      30.10S
LONGVIEW       CLOUDY    57  52  83 SE8       30.11F
MARSHALL       MOCLDY    51  48  89 CALM      30.16S
ATHENS         CLOUDY    55  52  88 SE8       30.08S
PALESTINE      CLOUDY    58  55  87 SE8       30.10S
JACKSONVILLE   CLOUDY    57  53  85 SE8       30.12S
HENDERSON      CLOUDY    58  52  83 SE7       30.13S
NACOGDOCHES    MOCLDY    55  50  82 SE9       30.12F
LUFKIN         CLEAR     56  50  80 E7        30.11F
$$

SUPPLEMENTAL OBSERVATIONS (CENTRAL)

CITY           SKY/WX    TMP DP  RH WIND       PRES   REMARKS
$$

SUPPLEMENTAL OBSERVATIONS (WEST)

CITY           SKY/WX    TMP DP  RH WIND       PRES   REMARKS
$$

SUPPLEMENTAL OBSERVATIONS (EAST)

CITY           SKY/WX    TMP DP  RH WIND       PRES   REMARKS
$$

SUPPLEMENTAL OBSERVATIONS ARE A COLLECTION OF AUTOMATED INSTRUMENTS
THAT ARE MAINTAINED BY A VARIETY OF FEDERAL AND STATE AGENCIES.
CERTAIN ELEMENTS...SUCH AS HUMIDITY VALUES AND SUSTAINED WIND
SPEEDS...MAY BE APPROXIMATED.